星链-36105(STARLINK-36105)

导读 | 豆包AI

STARLINK-36105是美国SpaceX星链互联网星座的一颗卫星,于2025年12月2日发射入轨,属于星链低轨卫星互联网星座部署序列中的一员。该卫星旨在为全球范围内提供低成本、广覆盖的宽带互联网接入服务,依托低轨部署优势,降低通信延迟,补充地面网络覆盖盲区,服务民用通信、远程互联等多元场景。

基本信息
目录编号:
66850
目录名称:
STARLINK-36105
国际标识:
2025-281C
轨道中心:
EARTH
卫星名称:
星链-36105
卫星全名:
星链-36105(STARLINK-36105)
卫星状态:
在轨 (已飞行102 天)
发射日期:
2025-12-02 UTC
国别 :
美国 (US)
星等 :
--
轨道信息
数据来源 国际轨道数据
星历时间: 2026-03-13T10:07:45+0800
1天前
查看轨道信息
半长轴: 6861.15km
偏心率: 0.0001447
轨道倾角: 43.002°
近地点辐角 265.334°
升交点赤经 324.432°
平近点角 94.735°
近地点: 482.02km
远地点: 484.006km
周期: 94.266分钟
每日圈数: 15.275922
详细信息
固有亮度:
5
最大亮度:
2.5
卫星平台:
Starlink V1.0
覆盖范围:
全球
运营商:
太空探索技术公司
运营商所在国:
美国
制造商(研发单位):
太空探索技术公司
制造商所在国:
美国
使用方式:
暂无
卫星简介
Starlink 计划是 SpaceX 推出的全球卫星互联网项目,通过发射低轨道卫星,为全球尤其是偏远地区提供高速、低延迟的互联网服务。自 2019 年起,Starlink 已部署数千颗卫星,旨在缩小全球数字鸿沟,推动互联网普及。该项目还为军事、航空等行业提供通信支持,带来广泛经济效益。
2D轨道图
3D轨道图
轨道高度分析图
轨道倾角分析图
轨道综合分析图
查看轨道综合分析图